| time (UTC) | temp F | wind direction | speed knots | gust knots | rain 1hr in | rain 24hr in | rain mn in | humidity % | barometer mb |
| 20260502190001 | 68 | 212 | 0.0 | 0.0 | 0.00 | 0.00 | 0.00 | 69 | 1008.4 |
| 20260502184501 | 70 | 215 | 0.0 | 0.0 | 0.00 | 0.00 | 0.00 | 67 | 1008.2 |
| 20260502183002 | 70 | 217 | 0.0 | 0.0 | 0.00 | 0.00 | 0.00 | 64 | 1008.1 |
| 20260502181502 | 72 | 217 | 0.0 | 0.0 | 0.00 | 0.00 | 0.00 | 63 | 1008.0 |
| 20260502163000 | 75 | 244 | 1.7 | 0.0 | 0.00 | 0.00 | 0.00 | 56 | 1009.1 |
| 20260502161502 | 75 | 208 | 0.9 | 0.0 | 0.00 | 0.00 | 0.00 | 56 | 1009.3 |
| 20260502151501 | 75 | 231 | 0.0 | 0.0 | 0.00 | 0.00 | 0.00 | 56 | 1009.8 |
| 20260502123001 | 77 | 211 | 4.3 | 0.0 | 0.00 | 0.00 | 0.00 | 47 | 1010.8 |
| 20260502121502 | 75 | 182 | 1.7 | 0.0 | 0.00 | 0.00 | 0.00 | 48 | 1010.8 |
| 20260502104502 | 75 | 141 | 3.5 | 0.0 | 0.00 | 0.00 | 0.00 | 43 | 1011.7 |
| 20260502103000 | 75 | 223 | 1.7 | 0.0 | 0.00 | 0.00 | 0.00 | 41 | 1011.9 |
| 20260502101502 | 73 | 193 | 0.0 | 0.0 | 0.00 | 0.00 | 0.00 | 40 | 1011.6 |
| 20260502091500 | 72 | 218 | 0.9 | 0.0 | 0.00 | 0.00 | 0.00 | 41 | 1012.1 |
| 20260502070001 | 64 | 192 | 0.0 | 0.0 | 0.00 | 0.00 | 0.00 | 51 | 1012.6 |
| 20260502064502 | 64 | 206 | 0.0 | 0.0 | 0.00 | 0.00 | 0.00 | 54 | 1012.6 |
| 20260502063002 | 63 | 174 | 1.7 | 0.0 | 0.00 | 0.00 | 0.00 | 55 | 1012.9 |
| 20260502061502 | 61 | 198 | 0.9 | 0.0 | 0.00 | 0.00 | 0.00 | 57 | 1012.8 |
| 20260502060002 | 59 | 126 | 0.0 | 0.0 | 0.00 | 0.00 | 0.00 | 61 | 1012.8 |
| 20260502054501 | 57 | 196 | 0.9 | 0.0 | 0.00 | 0.00 | 0.00 | 61 | 1012.9 |
| 20260502053001 | 55 | 189 | 0.0 | 0.0 | 0.00 | 0.00 | 0.00 | 63 | 1012.9 |
| 20260502051500 | 55 | 205 | 0.0 | 0.0 | 0.00 | 0.00 | 0.00 | 65 | 1013.1 |
| 20260502050003 | 52 | 207 | 0.0 | 0.0 | 0.00 | 0.00 | 0.00 | 68 | 1012.9 |
| 20260502044501 | 52 | 206 | 0.0 | 0.0 | 0.00 | 0.00 | 0.00 | 68 | 1013.1 |
| 20260502043002 | 52 | 180 | 0.9 | 0.0 | 0.00 | 0.00 | 0.00 | 68 | 1012.9 |
| 20260502041500 | 52 | 204 | 0.0 | 0.0 | 0.00 | 0.00 | 0.00 | 67 | 1013.0 |
| 20260502040002 | 52 | 209 | 0.0 | 0.0 | 0.00 | 0.00 | 0.00 | 68 | 1012.9 |
| 20260502034502 | 52 | 211 | 0.0 | 0.0 | 0.00 | 0.00 | 0.00 | 68 | 1013.1 |
| 20260502033000 | 54 | 135 | 0.9 | 0.0 | 0.00 | 0.00 | 0.00 | 67 | 1013.4 |
| 20260502031502 | 52 | 199 | 0.0 | 0.0 | 0.00 | 0.00 | 0.00 | 68 | 1013.2 |
| 20260502030002 | 52 | 199 | 1.7 | 0.0 | 0.00 | 0.00 | 0.00 | 69 | 1013.4 |
| 20260502024502 | 52 | 205 | 0.0 | 0.0 | 0.00 | 0.00 | 0.00 | 69 | 1013.5 |
| 20260502023000 | 52 | 163 | 0.9 | 0.0 | 0.00 | 0.00 | 0.00 | 70 | 1013.6 |
| 20260502021501 | 52 | 206 | 0.0 | 0.0 | 0.00 | 0.00 | 0.00 | 69 | 1013.6 |
| 20260502020002 | 54 | 203 | 0.0 | 0.0 | 0.00 | 0.00 | 0.00 | 69 | 1013.4 |
| 20260502013002 | 52 | 209 | 0.0 | 0.0 | 0.00 | 0.00 | 0.00 | 71 | 1014.3 |
| 20260502011502 | 54 | 206 | 0.0 | 0.0 | 0.00 | 0.00 | 0.00 | 70 | 1014.4 |
| 20260502010001 | 52 | 206 | 0.0 | 0.0 | 0.00 | 0.00 | 0.00 | 72 | 1014.4 |
| 20260502004502 | 52 | 205 | 0.0 | 0.0 | 0.00 | 0.00 | 0.00 | 73 | 1014.6 |
| 20260502003002 | 54 | 206 | 0.0 | 0.0 | 0.00 | 0.00 | 0.00 | 72 | 1014.7 |
| 20260502001502 | 54 | 207 | 0.0 | 0.0 | 0.00 | 0.00 | 0.00 | 71 | 1014.8 |
| 20260502000001 | 52 | 207 | 0.0 | 0.0 | 0.00 | 0.00 | 0.00 | 73 | 1015.1 |
| 20260501234501 | 52 | 207 | 0.0 | 0.0 | 0.00 | 0.00 | 0.00 | 73 | 1015.0 |
| 20260501233000 | 52 | 206 | 0.0 | 0.0 | 0.00 | 0.00 | 0.00 | 74 | 1014.8 |
| 20260501231501 | 54 | 207 | 0.0 | 0.0 | 0.00 | 0.00 | 0.00 | 72 | 1015.1 |
| 20260501230001 | 54 | 207 | 0.0 | 0.0 | 0.00 | 0.00 | 0.00 | 70 | 1015.4 |
| 20260501224500 | 54 | 210 | 0.0 | 0.0 | 0.00 | 0.00 | 0.00 | 70 | 1015.3 |
| 20260501223001 | 55 | 209 | 0.0 | 0.0 | 0.00 | 0.00 | 0.00 | 69 | 1015.4 |
| 20260501221502 | 55 | 207 | 0.0 | 0.0 | 0.00 | 0.00 | 0.00 | 69 | 1015.4 |
| 20260501220003 | 55 | 207 | 0.0 | 0.0 | 0.00 | 0.00 | 0.00 | 68 | 1015.6 |
| 20260501214502 | 57 | 208 | 0.0 | 0.0 | 0.00 | 0.00 | 0.00 | 63 | 1015.6 |
| 20260501213000 | 59 | 209 | 0.0 | 0.0 | 0.00 | 0.00 | 0.00 | 60 | 1015.7 |
| 20260501211502 | 61 | 208 | 0.0 | 0.0 | 0.00 | 0.00 | 0.00 | 57 | 1015.7 |
| 20260501210002 | 63 | 199 | 0.0 | 0.0 | 0.00 | 0.00 | 0.00 | 53 | 1015.5 |
| 20260501204502 | 63 | 198 | 0.0 | 0.0 | 0.00 | 0.00 | 0.00 | 53 | 1015.8 |
| 20260501203000 | 63 | 207 | 0.0 | 0.0 | 0.00 | 0.00 | 0.00 | 54 | 1015.9 |
| 20260501201502 | 63 | 189 | 0.0 | 0.0 | 0.00 | 0.00 | 0.00 | 52 | 1015.7 |